TimeWET,TemperatureF,Dew PointF,Humidity,Sea Level PressureIn,VisibilityMPH,Wind Direction,Wind SpeedMPH,Gust SpeedMPH,PrecipitationIn,Events,Conditions,WindDirDegrees,DateUTC
12:00 AM,41,37,81,30.02,4,ESE,6.9,,,,Scattered Clouds,110,2013-03-02 00:00:00
12:00 AM,41.0,37.4,87,30.01,3.7,ESE,6.9,-,N/A,,Partly Cloudy,110,2013-03-02 00:00:00
12:30 AM,41.0,37.4,87,29.98,3.7,ESE,6.9,-,N/A,,Partly Cloudy,120,2013-03-02 00:30:00
1:00 AM,39.2,35.6,87,29.98,3.7,ESE,4.6,-,N/A,,Partly Cloudy,110,2013-03-02 01:00:00
1:30 AM,39.2,35.6,87,29.98,5.6,Calm,Calm,-,N/A,,Partly Cloudy,0,2013-03-02 01:30:00
2:00 AM,37.4,35.6,93,29.95,6.2,WNW,2.3,-,N/A,,Unknown,290,2013-03-02 02:00:00
2:30 AM,37.4,35.6,93,29.95,6.2,Variable,1.2,-,N/A,,Unknown,0,2013-03-02 02:30:00
3:00 AM,44.6,37.4,76,29.92,5.0,East,10.4,-,N/A,,Unknown,90,2013-03-02 03:00:00
3:30 AM,46.4,37.4,71,29.92,5.6,ESE,4.6,-,N/A,,Unknown,110,2013-03-02 03:30:00
4:00 AM,42.8,35.6,76,29.92,5.6,SE,4.6,-,N/A,,Unknown,130,2013-03-02 04:00:00
4:30 AM,44.6,37.4,76,29.92,6.2,SE,3.5,-,N/A,,Unknown,130,2013-03-02 04:30:00
5:00 AM,42.8,35.6,76,29.92,6.2,Variable,2.3,-,N/A,,Unknown,0,2013-03-02 05:00:00
5:30 AM,41.0,35.6,81,29.92,6.2,Variable,1.2,-,N/A,,Unknown,0,2013-03-02 05:30:00
6:00 AM,49,40,62,29.92,4,East,9.2,,,,Partly Cloudy,90,2013-03-02 06:00:00
6:00 AM,48.2,39.2,71,29.92,3.7,East,9.2,-,N/A,,Scattered Clouds,90,2013-03-02 06:00:00
6:30 AM,50.0,41.0,71,29.92,3.7,East,11.5,-,N/A,,Scattered Clouds,90,2013-03-02 06:30:00
7:00 AM,50.0,39.2,66,29.89,3.7,East,13.8,-,N/A,,Scattered Clouds,90,2013-03-02 07:00:00
7:30 AM,51.8,39.2,62,29.89,5.0,East,15.0,-,N/A,,Mostly Cloudy,90,2013-03-02 07:30:00
8:00 AM,51.8,39.2,62,29.89,5.0,East,12.7,-,N/A,,Mostly Cloudy,90,2013-03-02 08:00:00
8:30 AM,53.6,39.2,58,29.89,5.0,East,15.0,-,N/A,,Mostly Cloudy,90,2013-03-02 08:30:00
9:00 AM,54,41,50,29.92,5,East,17.3,,,,Scattered Clouds,90,2013-03-02 09:00:00
9:00 AM,53.6,41.0,62,29.92,5.0,East,17.3,-,N/A,,Mostly Cloudy,90,2013-03-02 09:00:00
9:30 AM,55.4,41.0,58,29.89,6.2,East,21.9,35.7,N/A,,Mostly Cloudy,100,2013-03-02 09:30:00
10:00 AM,55.4,42.8,63,29.89,6.2,East,19.6,33.4,N/A,,Mostly Cloudy,100,2013-03-02 10:00:00
10:30 AM,57.2,44.6,63,29.89,6.2,East,23.0,34.5,N/A,,Mostly Cloudy,100,2013-03-02 10:30:00
11:00 AM,57.2,44.6,63,29.89,6.2,East,23.0,-,N/A,,Mostly Cloudy,100,2013-03-02 11:00:00
11:30 AM,57.2,42.8,59,29.89,6.2,East,21.9,-,N/A,,Mostly Cloudy,100,2013-03-02 11:30:00
12:00 PM,58,42,45,29.91,6,East,24.2,,,,Scattered Clouds,100,2013-03-02 12:00:00
12:00 PM,57.2,42.8,59,29.89,6.2,East,24.2,-,N/A,,Mostly Cloudy,100,2013-03-02 12:00:00
12:30 PM,59.0,42.8,55,29.89,6.2,East,21.9,33.4,N/A,,Mostly Cloudy,100,2013-03-02 12:30:00
1:00 PM,59.0,41.0,51,29.86,6.2,East,23.0,35.7,N/A,,Mostly Cloudy,100,2013-03-02 13:00:00
1:30 PM,60.8,42.8,52,29.86,6.2,East,23.0,36.8,N/A,,Mostly Cloudy,100,2013-03-02 13:30:00
2:00 PM,59.0,42.8,55,29.86,6.2,East,24.2,36.8,N/A,,Mostly Cloudy,100,2013-03-02 14:00:00
2:30 PM,59.0,42.8,55,29.83,6.2,East,26.5,40.3,N/A,,Mostly Cloudy,100,2013-03-02 14:30:00
3:00 PM,61,44,43,29.86,6,East,25.3,,,,Scattered Clouds,100,2013-03-02 15:00:00
3:00 PM,60.8,44.6,55,29.83,6.2,East,25.3,38.0,N/A,,Mostly Cloudy,100,2013-03-02 15:00:00
3:30 PM,59.0,42.8,55,29.83,6.2,East,25.3,38.0,N/A,,Mostly Cloudy,100,2013-03-02 15:30:00
4:00 PM,57.2,42.8,59,29.83,6.2,East,26.5,38.0,N/A,,Mostly Cloudy,90,2013-03-02 16:00:00
4:30 PM,57.2,42.8,59,29.83,6.2,East,25.3,39.1,N/A,,Mostly Cloudy,100,2013-03-02 16:30:00
5:00 PM,57.2,42.8,59,29.83,6.2,East,21.9,-,N/A,,Mostly Cloudy,100,2013-03-02 17:00:00
5:30 PM,57.2,44.6,63,29.86,6.2,ESE,20.7,32.2,N/A,,Mostly Cloudy,110,2013-03-02 17:30:00
6:00 PM,56,44,54,29.88,6,East,19.6,,,,Scattered Clouds,100,2013-03-02 18:00:00
6:00 PM,55.4,44.6,67,29.86,6.2,East,19.6,-,N/A,,Mostly Cloudy,100,2013-03-02 18:00:00
6:30 PM,55.4,44.6,67,29.86,6.2,East,18.4,-,N/A,,Mostly Cloudy,100,2013-03-02 18:30:00
7:00 PM,55.4,44.6,67,29.89,6.2,ESE,17.3,-,N/A,,Mostly Cloudy,110,2013-03-02 19:00:00
7:30 PM,55.4,44.6,67,29.89,6.2,ESE,17.3,-,N/A,,Mostly Cloudy,110,2013-03-02 19:30:00
8:00 PM,55.4,44.6,67,29.89,6.2,East,18.4,-,N/A,,Mostly Cloudy,100,2013-03-02 20:00:00
8:30 PM,55.4,44.6,67,29.86,6.2,East,20.7,32.2,N/A,,Mostly Cloudy,90,2013-03-02 20:30:00
9:00 PM,56,45,56,29.91,6,ESE,16.1,,,,Scattered Clouds,110,2013-03-02 21:00:00
9:00 PM,55.4,44.6,67,29.89,6.2,ESE,15.0,-,N/A,,Mostly Cloudy,110,2013-03-02 21:00:00
9:30 PM,46.4,37.4,71,29.92,5.0,ESE,13.8,-,N/A,,Mostly Cloudy,110,2013-03-02 21:30:00
10:00 PM,46.4,39.2,76,29.92,5.0,East,15.0,-,N/A,,Mostly Cloudy,100,2013-03-02 22:00:00
10:30 PM,46.4,39.2,76,29.92,5.0,ESE,11.5,-,N/A,,Mostly Cloudy,110,2013-03-02 22:30:00
11:00 PM,46.4,39.2,76,29.92,5.0,East,15.0,-,N/A,,Mostly Cloudy,100,2013-03-02 23:00:00
11:30 PM,50.0,41.0,71,29.92,5.0,ESE,13.8,-,N/A,,Mostly Cloudy,110,2013-03-02 23:30:00